Location: Bannatyne
(13.0833°N, 59.5333°W)
Time: 19:31:45
(UTC+00:00)

Explorer 7 - Pass Details

Date: 30 January 2020
Orbit: 485 x 679 km, 50.3° (Epoch: 19 February)

Event Time Altitude Azimuth Distance (km) Brightness Sun altitude
Rises 22:42:08 0° 236° (SW) 2,785 12.0 -11.1°
Reaches altitude 10° 22:44:38 10° 246° (WSW) 1,849 11.0 -11.7°
Maximum altitude 22:48:24 32° 309° (NW) 946 8.4 -12.6°
Drops below altitude 10° 22:51:58 10° 14° (NNE) 1,748 9.1 -13.4°
Enters shadow 22:52:42 - 18° (NNE) 2,008 9.4 -13.6°
Sets 22:54:17 0° 25° (NNE) 2,607 - -14.0°
